Location: Caltech
(34.1382°N, 118.1253°W)
Time: 06:22:13
(UTC-07:00)

JAS-1B - Visible Passes

Search period start: 23 August 2014 00:00
Search period end: 02 September 2014 00:00
Orbit: 911 x 1744 km, 99.1° (Epoch: 22 August)

Date Brightness Start Highest point End Pass type
(mag) Time Alt. Az. Time Alt. Az. Time Alt. Az.
23 Aug 7.7 02:57:28 10° NNE 03:04:07 52° E 03:04:07 52° E visible
23 Aug 8.5 04:49:06 10° NNW 04:54:19 22° WNW 04:56:22 19° W visible
24 Aug 7.2 03:16:23 10° NNE 03:23:15 75° E 03:23:15 75° E visible
24 Aug 8.8 05:09:11 10° NNW 05:12:56 15° WNW 05:15:30 12° W visible
25 Aug 9.6 01:48:34 10° ENE 01:50:09 12° E 01:50:09 12° E visible
25 Aug 7.0 03:35:28 10° N 03:42:23 77° WNW 03:42:23 77° WNW visible
26 Aug 9.2 02:05:45 10° NE 02:09:17 18° E 02:09:17 18° E visible
26 Aug 7.3 03:54:41 10° N 04:01:24 53° WNW 04:01:31 53° WNW visible
27 Aug 8.8 02:23:55 10° NE 02:28:25 26° ENE 02:28:25 26° ENE visible
27 Aug 7.7 04:14:03 10° N 04:20:14 37° WNW 04:20:39 36° WNW visible
28 Aug 8.3 02:42:28 10° NNE 02:47:33 37° ENE 02:47:33 37° ENE visible
28 Aug 8.2 04:33:36 10° N 04:38:59 26° WNW 04:39:47 25° WNW visible
29 Aug 7.7 03:01:16 10° NNE 03:06:40 51° ENE 03:06:40 51° ENE visible
29 Aug 8.6 04:53:28 10° NNW 04:57:39 18° WNW 04:58:55 17° WNW visible
30 Aug 7.3 03:20:14 10° NNE 03:25:48 64° NNE 03:25:48 64° NNE visible
30 Aug 8.9 05:14:05 10° NW 05:16:16 12° NW 05:18:03 11° WNW visible
31 Aug 9.6 01:51:38 10° ENE 01:52:41 12° ENE 01:52:41 12° ENE visible
31 Aug 7.3 03:39:21 10° N 03:44:56 58° NNW 03:44:56 58° NNW visible
01 Sep 9.2 02:09:11 10° NE 02:11:49 18° ENE 02:11:49 18° ENE visible
01 Sep 7.6 03:58:37 10° N 04:04:04 43° NW 04:04:04 43° NW visible
